Point Mugu, CA

8:31 PM PDT on March 22, 2017 (GMT -0700)
Point Mugu Naval Air Station

Weather History for KNTD - September, 2011

Change the Weather History Date:

Friday, September 23, 2011

  Actual Average Record
Temperature  
Mean Temperature 64 °F -  
Max Temperature 72 °F 70 °F 84 °F (1997)
Min Temperature 59 °F 56 °F 51 °F (2004)
Growing Degree Days 14 (Base 50)    
Moisture  
Dew Point 60 °F    
Average Humidity 86    
Maximum Humidity 94    
Minimum Humidity 73    
Precipitation  
Precipitation 0.00 in - - ()
Sea Level Pressure  
Sea Level Pressure 29.97 in    
Wind  
Wind Speed 7 mph (SSW)    
Max Wind Speed 14 mph    
Max Gust Speed 20 mph    
Visibility 5 miles    
Events Rain    
Averages and records for this station are not official NWS values.
T = Trace of Precipitation, MM = Missing Value Source: NWS Daily Summary

Daily Weather History Graph

Daily Weather History Graph

Search for Another Location

Airport or City:

Trip Planner

Search our weather history database for the weather conditions in past years. The results will help you decide how hot, cold, wet, or windy it might be!

Date:

Astronomy

Sep. 23, 2011 Rise Set
Actual Time 6:45 AM PDT 6:52 PM PDT
Civil Twilight 6:20 AM PDT 7:17 PM PDT
Nautical Twilight 5:50 AM PDT 7:46 PM PDT
Astronomical Twilight 5:21 AM PDT 8:15 PM PDT
Moon 2:28 AM PDT 4:16 PM PDT
Length of Visible Light 12h 56m
Length of Day
12h 06m
Waning Crescent, 18% of the Moon is Illuminated
Sep 23
Waning Crescent
Sep 27
New
Oct 3
First Quarter
Oct 11
Full
Oct 19
Last Quarter

Hourly Weather History & Observations

Time (PDT) Temp. Dew Point Humidity Pressure Visibility Wind Dir Wind Speed Gust Speed Precip Events Conditions
12:11 AM 59.0 °F - N/A% 29.97 in 2.0 mi West 8.1 mph - N/A   Overcast
12:54 AM 61.0 °F - N/A% 29.92 in 6.0 mi WSW 9.2 mph - N/A   Haze
1:54 AM 61.0 °F - N/A% 29.97 in 5.0 mi Calm Calm - N/A   Haze
2:23 AM - - N/A% - - North - - N/A   Unknown
2:54 AM 61.0 °F - N/A% 29.96 in 8.0 mi South 10.4 mph - N/A   Overcast
3:00 AM - - N/A% - - North - - N/A   Unknown
3:54 AM 61.0 °F - N/A% 29.96 in 5.0 mi West 3.5 mph - N/A   Haze
4:54 AM 61.0 °F - N/A% 29.96 in 6.0 mi SW 4.6 mph - N/A   Haze
5:32 AM 60.8 °F - N/A% 29.95 in 7.0 mi Variable 3.5 mph - N/A   Scattered Clouds
5:51 AM 62.6 °F 59.0 °F 88% 29.97 in 4.0 mi Calm Calm - N/A   Mostly Cloudy
5:54 AM 62.1 °F 59.7 °F 92% 29.97 in 4.0 mi South 4.6 mph - N/A   Mostly Cloudy
6:02 AM 62.6 °F 59.0 °F 88% 29.98 in 4.0 mi Calm Calm - N/A   Mostly Cloudy
6:54 AM 61.0 °F 59.0 °F 93% 29.96 in 3.0 mi NNE 10.4 mph - N/A Rain Rain
7:05 AM 60.8 °F 59.0 °F 94% 29.97 in 3.0 mi Variable 3.5 mph - 0.00 in   Mostly Cloudy
7:41 AM 60.8 °F 59.0 °F 94% 29.98 in 2.0 mi SW 6.9 mph - 0.00 in   Mostly Cloudy
7:47 AM 60.8 °F 59.0 °F 94% 29.99 in 2.0 mi Variable 5.8 mph - 0.00 in Rain Light Rain
7:54 AM 62.1 °F 59.4 °F 91% 29.99 in 2.0 mi South 11.5 mph - 0.00 in Rain Light Rain
8:06 AM 62.6 °F 60.8 °F 94% 30.00 in 2.0 mi South 9.2 mph - 0.00 in   Mostly Cloudy
8:54 AM 63.0 °F 59.9 °F 90% 29.99 in 5.0 mi South 9.2 mph - 0.00 in   Mostly Cloudy
9:54 AM 66.9 °F 60.8 °F 81% 30.01 in 4.0 mi Calm Calm - N/A   Haze
10:54 AM 66.7 °F 61.3 °F 83% 29.99 in 5.0 mi South 8.1 mph 19.6 mph N/A   Haze
11:54 AM 66.7 °F 62.4 °F 86% 30.01 in 5.0 mi South 11.5 mph - 0.00 in Rain Light Rain
12:54 PM 70.0 °F 60.8 °F 73% 29.99 in 5.0 mi SSE 13.8 mph - 0.00 in   Haze
1:20 PM 69.8 °F 60.8 °F 73% 29.98 in 5.0 mi South 13.8 mph - N/A   Haze
1:38 PM 69.8 °F 60.8 °F 73% 29.97 in 5.0 mi South 12.7 mph - N/A   Haze
1:54 PM 70.0 °F 60.8 °F 73% 29.97 in 5.0 mi SSW 12.7 mph - N/A   Haze
2:54 PM 70.0 °F 60.8 °F 73% 29.95 in 6.0 mi SSW 10.4 mph - N/A   Haze
3:54 PM 68.0 °F 60.8 °F 78% 29.94 in 6.0 mi SSW 9.2 mph - N/A   Haze
4:54 PM 64.9 °F 59.5 °F 83% 29.93 in 4.0 mi Variable 5.8 mph - N/A   Haze
5:54 PM 64.0 °F 60.1 °F 87% 29.93 in 4.0 mi SSW 5.8 mph - N/A   Haze
6:54 PM 64.0 °F 60.1 °F 87% 29.94 in 4.0 mi South 8.1 mph - N/A   Haze
7:54 PM 63.0 °F 61.0 °F 93% 29.97 in 4.0 mi South 5.8 mph - N/A   Overcast
8:54 PM 63.0 °F 61.0 °F 93% 29.99 in 4.0 mi South 6.9 mph - N/A   Overcast
9:54 PM 63.0 °F 59.5 °F 89% 29.99 in 4.0 mi SSW 4.6 mph - N/A   Overcast
10:54 PM 64.0 °F - N/A% 29.98 in 8.0 mi Calm Calm - N/A   Overcast
11:54 PM 63.0 °F - N/A% 29.97 in 7.0 mi North 3.5 mph - N/A   Overcast